Time,TemperatureF,DewpointF,PressureIn,WindDirection,WindDirectionDegrees,WindSpeedMPH,WindSpeedGustMPH,Humidity,HourlyPrecipIn,Conditions,Clouds,dailyrainin,SoftwareType,DateUTC
2013-02-02 00:11:00,23.2,21.2,30.12,SSW,202,0.0,-999.0,92,-99.99,,,0.00,Acu-Link.com,2013-02-02 05:11:00,
2013-02-02 00:26:00,23.0,21.0,30.12,SW,225,0.0,-999.0,92,-99.99,,,0.00,Acu-Link.com,2013-02-02 05:26:00,
2013-02-02 00:42:00,22.8,20.6,30.11,WSW,247,0.0,-999.0,91,-99.99,,,0.00,Acu-Link.com,2013-02-02 05:42:00,
2013-02-02 00:57:00,21.9,19.4,30.12,West,270,0.0,-999.0,90,-99.99,,,0.00,Acu-Link.com,2013-02-02 05:57:00,
2013-02-02 01:12:00,21.6,19.1,30.10,NE,45,0.0,-999.0,90,-99.99,,,0.00,Acu-Link.com,2013-02-02 06:12:00,
2013-02-02 01:27:00,21.0,19.0,30.10,SSE,157,0.0,-999.0,92,-99.99,,,0.00,Acu-Link.com,2013-02-02 06:27:00,
2013-02-02 01:42:00,21.6,19.9,30.10,South,180,0.0,-999.0,93,-99.99,,,0.00,Acu-Link.com,2013-02-02 06:42:00,
2013-02-02 01:57:00,21.4,19.7,30.08,WNW,292,0.0,-999.0,93,-99.99,,,0.00,Acu-Link.com,2013-02-02 06:57:00,
2013-02-02 02:12:00,21.0,19.3,30.09,WSW,247,0.0,-999.0,93,-99.99,,,0.00,Acu-Link.com,2013-02-02 07:12:00,
2013-02-02 02:27:00,21.4,19.7,30.10,South,180,0.0,-999.0,93,-99.99,,,0.00,Acu-Link.com,2013-02-02 07:27:00,
2013-02-02 02:42:00,21.2,19.2,30.10,South,180,0.0,-999.0,92,-99.99,,,0.00,Acu-Link.com,2013-02-02 07:42:00,
2013-02-02 02:58:00,21.0,19.3,30.10,NW,315,0.0,-999.0,93,-99.99,,,0.00,Acu-Link.com,2013-02-02 07:58:00,
2013-02-02 03:13:00,20.7,19.0,30.10,WNW,292,0.0,-999.0,93,-99.99,,,0.00,Acu-Link.com,2013-02-02 08:13:00,
2013-02-02 03:28:00,20.7,19.3,30.10,West,270,0.0,-999.0,94,-99.99,,,0.00,Acu-Link.com,2013-02-02 08:28:00,
2013-02-02 03:43:00,20.1,18.4,30.09,East,90,0.0,-999.0,93,-99.99,,,0.00,Acu-Link.com,2013-02-02 08:43:00,
2013-02-02 03:58:00,19.8,18.1,30.08,West,270,0.0,-999.0,93,-99.99,,,0.00,Acu-Link.com,2013-02-02 08:58:00,
2013-02-02 04:16:00,19.8,18.4,30.08,South,180,0.0,-999.0,94,-99.99,,,0.00,Acu-Link.com,2013-02-02 09:16:00,
2013-02-02 04:31:00,19.8,18.4,30.08,South,180,0.0,-999.0,94,-99.99,,,0.00,Acu-Link.com,2013-02-02 09:31:00,
2013-02-02 04:46:00,19.6,18.2,30.08,South,180,0.0,-999.0,94,-99.99,,,0.00,Acu-Link.com,2013-02-02 09:46:00,
2013-02-02 05:01:00,19.9,18.7,30.08,South,180,0.0,-999.0,95,-99.99,,,0.00,Acu-Link.com,2013-02-02 10:01:00,
2013-02-02 05:17:00,19.8,18.6,30.07,West,270,0.0,-999.0,95,-99.99,,,0.00,Acu-Link.com,2013-02-02 10:17:00,
2013-02-02 05:32:00,19.8,18.8,30.07,SW,225,0.0,-999.0,96,-99.99,,,0.00,Acu-Link.com,2013-02-02 10:32:00,
2013-02-02 05:47:00,19.4,18.2,30.08,NE,45,0.0,-999.0,95,-99.99,,,0.00,Acu-Link.com,2013-02-02 10:47:00,
2013-02-02 06:02:00,19.6,18.6,30.07,South,180,0.0,-999.0,96,-99.99,,,0.00,Acu-Link.com,2013-02-02 11:02:00,
2013-02-02 06:17:00,19.4,18.4,30.07,SSW,202,0.0,-999.0,96,-99.99,,,0.00,Acu-Link.com,2013-02-02 11:17:00,
2013-02-02 06:32:00,20.1,19.1,30.07,West,270,0.0,-999.0,96,-99.99,,,0.00,Acu-Link.com,2013-02-02 11:32:00,
2013-02-02 06:47:00,20.3,19.3,30.07,West,270,0.0,-999.0,96,-99.99,,,0.00,Acu-Link.com,2013-02-02 11:47:00,
2013-02-02 07:02:00,20.3,19.3,30.07,South,180,0.0,-999.0,96,-99.99,,,0.00,Acu-Link.com,2013-02-02 12:02:00,
2013-02-02 07:17:00,20.1,19.1,30.08,NNW,337,0.0,-999.0,96,-99.99,,,0.00,Acu-Link.com,2013-02-02 12:17:00,
2013-02-02 07:33:00,20.5,19.8,30.06,SE,135,0.0,-999.0,97,-99.99,,,0.00,Acu-Link.com,2013-02-02 12:33:00,
2013-02-02 07:48:00,20.8,20.1,30.06,South,180,0.0,-999.0,97,-99.99,,,0.00,Acu-Link.com,2013-02-02 12:48:00,
2013-02-02 08:03:00,21.6,20.6,30.05,North,0,0.0,-999.0,96,-99.99,,,0.00,Acu-Link.com,2013-02-02 13:03:00,
2013-02-02 08:18:00,22.6,21.1,30.05,SSE,157,0.0,-999.0,94,-99.99,,,0.00,Acu-Link.com,2013-02-02 13:18:00,
2013-02-02 08:33:00,23.7,22.7,30.05,East,90,0.0,-999.0,96,-99.99,,,0.00,Acu-Link.com,2013-02-02 13:33:00,
2013-02-02 08:48:00,24.6,22.6,30.05,SSE,157,0.0,-999.0,92,-99.99,,,0.00,Acu-Link.com,2013-02-02 13:48:00,
2013-02-02 09:03:00,25.5,23.0,30.07,NNW,337,0.0,-999.0,90,-99.99,,,0.00,Acu-Link.com,2013-02-02 14:03:00,
2013-02-02 09:18:00,26.6,23.8,30.08,NE,45,2.7,-999.0,89,-99.99,,,0.00,Acu-Link.com,2013-02-02 14:18:00,
2013-02-02 09:33:00,27.0,23.9,30.11,NE,45,0.0,-999.0,88,-99.99,,,0.00,Acu-Link.com,2013-02-02 14:33:00,
2013-02-02 09:49:00,27.5,23.9,30.07,NE,45,5.3,-999.0,86,-99.99,,,0.00,Acu-Link.com,2013-02-02 14:49:00,
2013-02-02 10:04:00,28.2,24.3,30.12,ENE,67,1.1,-999.0,85,-99.99,,,0.00,Acu-Link.com,2013-02-02 15:04:00,
2013-02-02 10:19:00,28.9,23.5,30.13,ENE,67,0.0,-999.0,80,-99.99,,,0.00,Acu-Link.com,2013-02-02 15:19:00,
2013-02-02 10:34:00,29.1,23.7,30.11,ESE,112,0.0,-999.0,80,-99.99,,,0.00,Acu-Link.com,2013-02-02 15:34:00,
2013-02-02 10:49:00,29.3,23.3,30.09,SSE,157,0.0,-999.0,78,-99.99,,,0.00,Acu-Link.com,2013-02-02 15:49:00,
2013-02-02 11:04:00,30.0,23.1,30.07,SW,225,5.3,-999.0,75,-99.99,,,0.00,Acu-Link.com,2013-02-02 16:04:00,
2013-02-02 11:19:00,27.5,26.5,30.04,SSW,202,3.7,-999.0,96,-99.99,,,0.00,Acu-Link.com,2013-02-02 16:19:00,
2013-02-02 11:34:00,28.9,27.1,30.05,SSW,202,3.2,-999.0,93,-99.99,,,0.00,Acu-Link.com,2013-02-02 16:34:00,
2013-02-02 11:49:00,29.7,27.1,30.03,SW,225,3.7,-999.0,90,-99.99,,,0.00,Acu-Link.com,2013-02-02 16:49:00,
2013-02-02 12:05:00,30.2,27.6,30.02,South,180,4.2,-999.0,90,-99.99,,,0.00,Acu-Link.com,2013-02-02 17:05:00,
2013-02-02 12:20:00,30.2,28.2,30.01,SSW,202,5.8,-999.0,92,-99.99,,,0.00,Acu-Link.com,2013-02-02 17:20:00,
2013-02-02 12:35:00,32.4,30.3,29.99,WSW,247,3.7,-999.0,92,-99.99,,,0.00,Acu-Link.com,2013-02-02 17:35:00,
2013-02-02 12:50:00,33.6,31.3,29.98,SW,225,3.7,-999.0,91,-99.99,,,0.00,Acu-Link.com,2013-02-02 17:50:00,
2013-02-02 13:05:00,34.5,31.6,29.97,SSW,202,3.7,-999.0,89,-99.99,,,0.00,Acu-Link.com,2013-02-02 18:05:00,
2013-02-02 13:20:00,34.7,31.5,29.96,SSW,202,4.2,-999.0,88,-99.99,,,0.00,Acu-Link.com,2013-02-02 18:20:00,
2013-02-02 13:35:00,34.9,31.1,29.94,SSW,202,4.7,-999.0,86,-99.99,,,0.01,Acu-Link.com,2013-02-02 18:35:00,
2013-02-02 13:50:00,34.3,30.8,29.93,WNW,292,3.2,-999.0,87,-99.99,,,0.01,Acu-Link.com,2013-02-02 18:50:00,
2013-02-02 14:05:00,34.3,31.4,29.93,NNW,337,1.1,-999.0,89,-99.99,,,0.01,Acu-Link.com,2013-02-02 19:05:00,
2013-02-02 14:21:00,34.2,31.3,29.91,SSW,202,6.8,-999.0,89,-99.99,,,0.01,Acu-Link.com,2013-02-02 19:21:00,
2013-02-02 14:36:00,34.0,31.4,29.91,SSW,202,4.2,-999.0,90,-99.99,,,0.01,Acu-Link.com,2013-02-02 19:36:00,
2013-02-02 14:51:00,33.6,31.5,29.90,SSW,202,1.7,-999.0,92,-99.99,,,0.01,Acu-Link.com,2013-02-02 19:51:00,
2013-02-02 15:06:00,35.1,33.0,29.89,West,270,2.7,-999.0,92,-99.99,,,0.01,Acu-Link.com,2013-02-02 20:06:00,
2013-02-02 15:21:00,35.6,33.0,29.88,SSW,202,4.2,-999.0,90,-99.99,,,0.02,Acu-Link.com,2013-02-02 20:21:00,
2013-02-02 15:36:00,36.1,32.6,29.87,West,270,1.7,-999.0,87,-99.99,,,0.02,Acu-Link.com,2013-02-02 20:36:00,
2013-02-02 15:52:00,36.3,33.1,29.87,West,270,2.7,-999.0,88,-99.99,,,0.02,Acu-Link.com,2013-02-02 20:52:00,
2013-02-02 16:07:00,36.0,32.8,29.88,WNW,292,2.7,-999.0,88,-99.99,,,0.02,Acu-Link.com,2013-02-02 21:07:00,
2013-02-02 16:22:00,35.8,32.6,29.88,SSW,202,2.7,-999.0,88,-99.99,,,0.02,Acu-Link.com,2013-02-02 21:22:00,
2013-02-02 16:37:00,36.0,33.1,29.87,SW,225,2.7,-999.0,89,-99.99,,,0.02,Acu-Link.com,2013-02-02 21:37:00,
2013-02-02 16:52:00,35.8,33.2,29.88,SSW,202,4.2,-999.0,90,-99.99,,,0.02,Acu-Link.com,2013-02-02 21:52:00,
2013-02-02 17:07:00,35.8,33.2,29.88,SSW,202,4.2,-999.0,90,-99.99,,,0.02,Acu-Link.com,2013-02-02 22:07:00,
2013-02-02 17:22:00,35.4,33.0,29.86,South,180,3.2,-999.0,91,-99.99,,,0.02,Acu-Link.com,2013-02-02 22:22:00,
2013-02-02 17:37:00,35.4,33.3,29.87,SSW,202,4.7,-999.0,92,-99.99,,,0.02,Acu-Link.com,2013-02-02 22:37:00,
2013-02-02 17:52:00,35.4,33.3,29.86,SW,225,6.8,-999.0,92,-99.99,,,0.02,Acu-Link.com,2013-02-02 22:52:00,
2013-02-02 18:08:00,35.6,33.8,29.86,SW,225,3.7,-999.0,93,-99.99,,,0.02,Acu-Link.com,2013-02-02 23:08:00,
2013-02-02 18:23:00,35.2,33.6,29.85,West,270,0.0,-999.0,94,-99.99,,,0.02,Acu-Link.com,2013-02-02 23:23:00,
2013-02-02 18:38:00,35.1,33.6,29.86,NW,315,0.0,-999.0,94,-99.99,,,0.02,Acu-Link.com,2013-02-02 23:38:00,
2013-02-02 18:53:00,35.1,33.8,29.86,NW,315,0.0,-999.0,95,-99.99,,,0.02,Acu-Link.com,2013-02-02 23:53:00,
2013-02-02 19:08:00,35.1,34.1,29.87,ENE,67,0.0,-999.0,96,-99.99,,,0.02,Acu-Link.com,2013-02-03 00:08:00,
2013-02-02 19:23:00,35.2,34.4,29.87,NNW,337,0.0,-999.0,97,-99.99,,,0.02,Acu-Link.com,2013-02-03 00:23:00,
2013-02-02 19:38:00,35.1,34.3,29.86,NNW,337,0.0,-999.0,97,-99.99,,,0.02,Acu-Link.com,2013-02-03 00:38:00,
2013-02-02 19:53:00,35.1,34.6,29.87,East,90,0.0,-999.0,98,-99.99,,,0.02,Acu-Link.com,2013-02-03 00:53:00,
2013-02-02 20:08:00,35.4,34.9,29.87,West,270,0.0,-999.0,98,-99.99,,,0.02,Acu-Link.com,2013-02-03 01:08:00,
2013-02-02 20:23:00,35.4,34.9,29.87,SSW,202,0.0,-999.0,98,-99.99,,,0.02,Acu-Link.com,2013-02-03 01:23:00,
2013-02-02 20:39:00,35.1,34.6,29.86,West,270,0.0,-999.0,98,-99.99,,,0.02,Acu-Link.com,2013-02-03 01:39:00,
2013-02-02 20:54:00,34.2,33.7,29.87,NNW,337,0.0,-999.0,98,-99.99,,,0.02,Acu-Link.com,2013-02-03 01:54:00,
2013-02-02 21:09:00,33.1,32.6,29.89,East,90,0.0,-999.0,98,-99.99,,,0.02,Acu-Link.com,2013-02-03 02:09:00,
2013-02-02 21:24:00,32.4,31.9,29.88,NW,315,0.0,-999.0,98,-99.99,,,0.02,Acu-Link.com,2013-02-03 02:24:00,
2013-02-02 21:39:00,31.3,30.8,29.88,SSW,202,0.0,-999.0,98,-99.99,,,0.02,Acu-Link.com,2013-02-03 02:39:00,
2013-02-02 21:54:00,30.6,30.1,29.89,NW,315,1.1,-999.0,98,-99.99,,,0.02,Acu-Link.com,2013-02-03 02:54:00,
2013-02-02 22:24:00,30.0,29.5,29.89,SSE,157,2.2,-999.0,98,-99.99,,,0.02,Acu-Link.com,2013-02-03 03:24:00,
2013-02-02 22:39:00,29.7,29.2,29.89,South,180,1.7,-999.0,98,-99.99,,,0.02,Acu-Link.com,2013-02-03 03:39:00,
2013-02-02 22:55:00,29.7,29.2,29.88,East,90,2.7,-999.0,98,-99.99,,,0.02,Acu-Link.com,2013-02-03 03:55:00,
2013-02-02 23:10:00,29.8,29.3,29.88,SE,135,0.0,-999.0,98,-99.99,,,0.02,Acu-Link.com,2013-02-03 04:10:00,
2013-02-02 23:25:00,29.8,29.3,29.88,SSW,202,0.0,-999.0,98,-99.99,,,0.02,Acu-Link.com,2013-02-03 04:25:00,
2013-02-02 23:40:00,29.7,29.2,29.88,NE,45,0.0,-999.0,98,-99.99,,,0.02,Acu-Link.com,2013-02-03 04:40:00,
2013-02-02 23:55:00,29.1,28.6,29.89,South,180,0.0,-999.0,98,-99.99,,,0.02,Acu-Link.com,2013-02-03 04:55:00,